{"data":{"norad_id":60731,"epoch":"2026-09-21T02:51:16.310592Z","epoch_age_seconds":134985,"freshness":"FRESH","line1":"1 60731U 24152M   26264.11893878  .00001443  00000+0  16781-4 0  9994","line2":"2 60731  53.1614 232.5504 0001274  70.9320 289.1836 15.69695180119542","mean_motion":15.6969518,"eccentricity":0.0001274,"inclination_deg":53.1614,"raan_deg":232.5504,"arg_perigee_deg":70.932,"mean_anomaly_deg":289.1836,"bstar":1.6781e-5,"rev_number":11954,"period_min":91.737556332434,"perigee_km":358.91075067588,"apogee_km":360.62756916543,"semimajor_km":6737.9061599207,"source":"CELESTRAK","updated_at":"2026-09-22T09:00:49.279559Z"}}